Location: Cherry Springs State Park
(41.6616°N, 77.8240°W)
Time: 14:04:51
(UTC-04:00)

Amateur Radio Satellites - All Passes

Search period start: 23 July 2014 13:34
Search period end: 24 July 2014 13:34
Location: Cherry Springs State Park, 41.6616°N, 77.8240°W

Satellite Date Start Highest point End Downlink Frequencies (MHz)
Time Altitude Azimuth
KITSAT 1 23 Jul 13:38:22 13:41:43 13° 14° (NNE) 13:45:04 435.175 FM
Oscar 19 23 Jul 13:57:43 14:02:50 89° 73° (ENE) 14:07:59 437.125 CW, 437.150 USB
JAS-1B 23 Jul 14:05:14 14:13:10 43° 62° (ENE) 14:22:02 435.800 - 435.900 CW/SSB
AO-7 23 Jul 14:17:10 14:21:10 14° 45° (NE) 14:25:08 29.400 - 29.500 MHz
TMSAT-1 23 Jul 14:19:10 14:23:05 21° 63° (ENE) 14:27:00 436.925 FM
RS-15 23 Jul 14:23:21 14:33:57 52° 112° (ESE) 14:44:19 29.354 - 29.394 USB, Beacon 29.352 USB
Oscar 16 23 Jul 14:25:16 14:30:12 48° 261° (W) 14:35:10 437.025 USB, Beacon 2401.1428
ITAMSAT 1 23 Jul 14:32:47 14:38:01 90° 76° (ENE) 14:43:16 435.822 SSB
Gurwin Techsat 1B 23 Jul 14:38:12 14:43:09 42° 69° (ENE) 14:48:08 435.225 FM
AO-27 23 Jul 14:50:26 14:55:36 62° 258° (WSW) 15:00:48 436.795 MHz FM
Uribyol 2 23 Jul 14:54:04 14:59:10 55° 259° (W) 15:04:17 436.500 FM
AO-Echo 23 Jul 15:02:47 15:07:51 48° 261° (W) 15:13:01 ?
SO-50 23 Jul 15:13:12 15:17:32 49° 308° (NW) 15:21:59 436.795 FM
Uosat F 23 Jul 15:17:56 15:21:12 18° 62° (ENE) 15:24:28 435.120 FM
KITSAT 1 23 Jul 15:33:08 15:40:14 32° 42° (NE) 15:47:16 435.175 FM
Oscar 19 23 Jul 15:42:28 15:42:52 10° 272° (W) 15:43:15 437.125 CW, 437.150 USB
JAS-1B 23 Jul 15:55:14 16:03:21 52° 263° (W) 16:12:42 435.800 - 435.900 CW/SSB
TMSAT-1 23 Jul 15:57:27 16:02:36 52° 260° (W) 16:07:48 436.925 FM
AO-7 23 Jul 16:04:05 16:12:14 60° 66° (ENE) 16:20:25 29.400 - 29.500 MHz
UOSAT-12 23 Jul 16:07:53 16:12:17 47° 117° (ESE) 16:16:46 437.025 FM, 437.400 FM
ITAMSAT 1 23 Jul 16:17:13 16:18:11 11° 272° (W) 16:19:10 435.822 SSB
Gurwin Techsat 1B 23 Jul 16:18:57 16:23:15 25° 266° (W) 16:27:36 435.225 FM
RS-15 23 Jul 16:35:42 16:46:21 50° 315° (NW) 16:56:55 29.354 - 29.394 USB, Beacon 29.352 USB
Uosat F 23 Jul 16:54:30 16:59:29 60° 259° (WSW) 17:04:30 435.120 FM
Saudisat 1A 23 Jul 16:58:47 17:01:39 17° 40° (NE) 17:04:30 436.775 MHz
OPAL 23 Jul 17:24:10 17:29:14 84° 106° (ESE) 17:34:21 ?
JAS-2 23 Jul 17:26:43 17:33:19 31° 63° (ENE) 17:39:40 435.800 - 435.900 CW/SSB, 435.910 FM
KITSAT 1 23 Jul 17:28:15 17:36:16 70° 244° (WSW) 17:44:14 435.175 FM
UOSAT-12 23 Jul 17:48:52 17:52:40 24° 316° (NW) 17:56:31 437.025 FM, 437.400 FM
AO-7 23 Jul 17:58:15 18:05:24 31° 264° (W) 18:12:38 29.400 - 29.500 MHz
Hamsat 23 Jul 18:27:01 18:31:11 88° 257° (WSW) 18:35:24 145.90 MHz
Saudisat 1A 23 Jul 18:37:20 18:41:44 72° 239° (WSW) 18:46:06 436.775 MHz
RS-15 23 Jul 18:54:07 19:02:12 22° 347° (NNW) 19:10:20 29.354 - 29.394 USB, Beacon 29.352 USB
Oscar 10/S400 23 Jul 18:57:15 19:09:57 19° 140° (SE) 19:24:52 145.825 - 145.975 CW/USB, Beacon 145.810 USB
OPAL 23 Jul 19:05:06 19:07:27 13° 303° (WNW) 19:09:48 ?
JAS-2 23 Jul 19:10:07 19:17:53 61° 260° (W) 19:25:23 435.800 - 435.900 CW/SSB, 435.910 FM
KITSAT 1 23 Jul 19:27:19 19:30:10 12° 262° (W) 19:33:01 435.175 FM
HO-68 23 Jul 19:32:54 19:37:10 17° 53° (NE) 19:41:26 435.675 MHz FM
STRAND 1 23 Jul 19:37:35 19:42:30 45° 99° (E) 19:47:22 ?
SO-67 23 Jul 19:49:40 19:53:04 57° 260° (W) 19:56:31 435.3500 MHz FM
UKube-1 23 Jul 20:17:43 20:19:32 12° 61° (ENE) 20:21:21 145.840 MHz, 145.915 MHz
JAS-2 23 Jul 21:03:21 21:04:07 10° 277° (W) 21:04:53 435.800 - 435.900 CW/SSB, 435.910 FM
Oscar 11 23 Jul 21:07:57 21:11:01 19° 66° (ENE) 21:14:05 145.825 FM, Beacon 2401.500 USB
RS-15 23 Jul 21:11:01 21:19:47 26° 23° (NNE) 21:28:40 29.354 - 29.394 USB, Beacon 29.352 USB
HO-68 23 Jul 21:16:38 21:23:49 82° 72° (ENE) 21:31:01 435.675 MHz FM
STRAND 1 23 Jul 21:17:27 21:21:23 23° 296° (WNW) 21:25:18 ?
UKube-1 23 Jul 21:50:50 21:55:10 68° 258° (WSW) 21:59:33 145.840 MHz, 145.915 MHz
SO-50 23 Jul 22:04:27 22:08:14 23° 44° (NE) 22:12:04 436.795 FM
MaSat-1 23 Jul 22:13:10 22:16:05 21° 102° (ESE) 22:19:20 437.345 MHz
Oscar 11 23 Jul 22:42:54 22:46:56 38° 262° (W) 22:50:58 145.825 FM, Beacon 2401.500 USB
FUNcube-1 23 Jul 22:47:35 22:52:00 85° 76° (ENE) 22:56:19 145.950 - 145.970 MHz USB
HO-68 23 Jul 23:07:38 23:12:16 18° 270° (W) 23:16:55 435.675 MHz FM
RS-15 23 Jul 23:23:45 23:34:44 67° 52° (NE) 23:46:05 29.354 - 29.394 USB, Beacon 29.352 USB
SO-50 23 Jul 23:44:28 23:49:06 53° 242° (WSW) 23:53:46 436.795 FM
Lituanica SAT-1 23 Jul 23:47:37 23:48:24 11° 134° (SE) 23:49:11 437.275 MHz beacon
MaSat-1 23 Jul 23:49:23 23:53:05 36° 305° (NW) 23:57:22 437.345 MHz
AO-40 24 Jul 00:06:16 05:41:14 39° 182° (S) 11:23:34 Beacon 2401.320
UOSAT-12 24 Jul 00:37:14 00:41:47 44° 51° (NE) 00:46:16 437.025 FM, 437.400 FM
Lituanica SAT-1 24 Jul 01:18:59 01:20:59 35° 330° (NNW) 01:23:00 437.275 MHz beacon
ISS 24 Jul 01:21:35 01:24:18 23° 134° (SE) 01:27:03 145.800 FM
Sapphire 24 Jul 01:34:31 01:38:47 24° 107° (ESE) 01:43:04 437.095 MHz 1200 baud AX-25 AFSK
RS-15 24 Jul 01:36:47 01:46:26 37° 253° (WSW) 01:56:25 29.354 - 29.394 USB, Beacon 29.352 USB
JAS-1B 24 Jul 01:54:58 01:57:58 12° 78° (ENE) 02:00:51 435.800 - 435.900 CW/SSB
PCSat 24 Jul 02:07:22 02:12:34 51° 114° (ESE) 02:17:48 145.825 MHz
Oscar 19 24 Jul 02:09:28 02:14:02 31° 96° (E) 02:18:35 437.125 CW, 437.150 USB
UOSAT-12 24 Jul 02:17:59 02:21:39 23° 248° (WSW) 02:25:17 437.025 FM, 437.400 FM
Oscar 16 24 Jul 02:36:29 02:41:35 59° 101° (E) 02:46:40 437.025 USB, Beacon 2401.1428
ITAMSAT 1 24 Jul 02:45:56 02:50:32 31° 96° (E) 02:55:05 435.822 SSB
Gurwin Techsat 1B 24 Jul 02:55:20 02:58:35 16° 91° (E) 03:01:48 435.225 FM
ISS 24 Jul 02:57:38 03:00:52 44° 331° (NNW) 03:04:07 145.800 FM
OPAL 24 Jul 03:02:37 03:06:07 20° 61° (ENE) 03:09:37 ?
AO-27 24 Jul 03:03:21 03:08:22 47° 99° (E) 03:13:20 436.795 MHz FM
Uribyol 2 24 Jul 03:06:33 03:11:36 52° 100° (E) 03:16:37 436.500 FM
AO-Echo 24 Jul 03:09:59 03:15:04 56° 100° (E) 03:19:57 ?
Sapphire 24 Jul 03:16:40 03:21:52 48° 305° (NW) 03:27:08 437.095 MHz 1200 baud AX-25 AFSK
JAS-1B 24 Jul 03:40:59 03:50:35 63° 100° (E) 03:58:54 435.800 - 435.900 CW/SSB
Oscar 19 24 Jul 03:48:47 03:53:20 32° 293° (WNW) 03:57:52 437.125 CW, 437.150 USB
PCSat 24 Jul 03:51:44 03:56:15 26° 312° (NW) 04:00:47 145.825 MHz
AO-7 24 Jul 04:07:16 04:12:25 17° 90° (E) 04:17:31 29.400 - 29.500 MHz
TMSAT-1 24 Jul 04:12:55 04:18:11 62° 101° (E) 04:23:25 436.925 FM
Oscar 16 24 Jul 04:17:01 04:20:28 18° 298° (WNW) 04:23:55 437.025 USB, Beacon 2401.1428
ITAMSAT 1 24 Jul 04:25:25 04:29:59 32° 293° (WNW) 04:34:31 435.822 SSB
Gurwin Techsat 1B 24 Jul 04:33:43 04:38:59 64° 287° (WNW) 04:44:13 435.225 FM
ISS 24 Jul 04:35:58 04:38:13 17° 350° (N) 04:40:29 145.800 FM
OPAL 24 Jul 04:39:48 04:44:37 52° 258° (WSW) 04:49:28 ?
AO-27 24 Jul 04:43:35 04:47:34 23° 296° (WNW) 04:51:31 436.795 MHz FM
Uribyol 2 24 Jul 04:46:58 04:50:41 20° 297° (WNW) 04:54:24 436.500 FM
AO-Echo 24 Jul 04:49:50 04:53:20 19° 298° (WNW) 04:56:47 ?
Uosat F 24 Jul 05:02:08 05:06:53 40° 99° (E) 05:11:35 435.120 FM
Sapphire 24 Jul 05:05:54 05:06:41 10° 327° (NNW) 05:07:29 437.095 MHz 1200 baud AX-25 AFSK
JAS-1B 24 Jul 05:31:58 05:40:24 36° 301° (WNW) 05:48:03 435.800 - 435.900 CW/SSB
TMSAT-1 24 Jul 05:54:06 05:57:36 18° 298° (WNW) 06:01:05 436.925 FM
AO-7 24 Jul 05:57:52 06:06:16 88° 108° (ESE) 06:14:35 29.400 - 29.500 MHz
Lituanica SAT-1 24 Jul 05:59:33 06:01:22 22° 27° (NNE) 06:03:10 437.275 MHz beacon
KITSAT 1 24 Jul 06:05:14 06:09:47 16° 100° (E) 06:14:20 435.175 FM
ISS 24 Jul 06:13:36 06:15:55 17° 11° (N) 06:18:15 145.800 FM
Hamsat 24 Jul 06:13:38 06:16:22 16° 92° (E) 06:19:06 145.90 MHz
JAS-2 24 Jul 06:22:18 06:26:28 19° 88° (E) 06:30:21 435.800 - 435.900 CW/SSB, 435.910 FM
MaSat-1 24 Jul 06:31:52 06:33:40 12° 42° (NE) 06:35:28 437.345 MHz
Uosat F 24 Jul 06:41:25 06:45:26 24° 295° (WNW) 06:49:25 435.120 FM
STRAND 1 24 Jul 06:53:36 06:58:42 68° 73° (ENE) 07:03:50 ?
Lituanica SAT-1 24 Jul 07:32:24 07:34:05 20° 223° (SW) 07:35:46 437.275 MHz beacon
Hamsat 24 Jul 07:48:28 07:52:32 43° 288° (WNW) 07:56:36 145.90 MHz
ISS 24 Jul 07:49:57 07:53:14 50° 30° (NNE) 07:56:31 145.800 FM
Oscar 10/S400 24 Jul 07:50:24 08:58:11 22° 255° (WSW) 11:21:27 145.825 - 145.975 CW/USB, Beacon 145.810 USB
AO-7 24 Jul 07:52:00 07:58:02 23° 308° (NW) 08:04:03 29.400 - 29.500 MHz
KITSAT 1 24 Jul 07:55:51 08:03:57 83° 119° (ESE) 08:12:05 435.175 FM
JAS-2 24 Jul 08:06:01 08:12:13 61° 289° (WNW) 08:17:42 435.800 - 435.900 CW/SSB, 435.910 FM
MaSat-1 24 Jul 08:06:52 08:12:09 60° 61° (ENE) 08:17:15 437.345 MHz
STRAND 1 24 Jul 08:35:35 08:38:22 15° 270° (W) 08:41:10 ?
Saudisat 1A 24 Jul 08:44:28 08:48:12 27° 114° (ESE) 08:51:58 436.775 MHz
SO-67 24 Jul 08:46:23 08:49:45 48° 286° (WNW) 08:53:06 435.3500 MHz FM
HO-68 24 Jul 08:46:42 08:50:09 14° 88° (E) 08:53:36 435.675 MHz FM
ISS 24 Jul 09:27:10 09:29:44 20° 227° (SW) 09:32:17 145.800 FM
PANSAT 24 Jul 09:36:23 09:37:41 11° 181° (S) 09:39:00 not established
UKube-1 24 Jul 09:39:48 09:43:00 20° 94° (E) 09:46:10 145.840 MHz, 145.915 MHz
MaSat-1 24 Jul 09:45:23 09:49:01 19° 259° (WSW) 09:52:33 437.345 MHz
KITSAT 1 24 Jul 09:53:33 10:00:17 28° 321° (NW) 10:07:04 435.175 FM
Sapphire 24 Jul 10:21:28 10:25:50 24° 46° (NE) 10:30:11 437.095 MHz 1200 baud AX-25 AFSK
Saudisat 1A 24 Jul 10:23:39 10:27:41 34° 311° (NW) 10:31:44 436.775 MHz
Oscar 11 24 Jul 10:30:10 10:34:09 35° 97° (E) 10:38:08 145.825 FM, Beacon 2401.500 USB
HO-68 24 Jul 10:31:39 10:38:51 83° 106° (ESE) 10:45:59 435.675 MHz FM
FUNcube-1 24 Jul 10:37:57 10:40:22 15° 92° (E) 10:42:47 145.950 - 145.970 MHz USB
PCSat 24 Jul 10:55:02 11:00:13 43° 54° (NE) 11:05:22 145.825 MHz
UKube-1 24 Jul 11:15:18 11:19:19 37° 290° (WNW) 11:23:19 145.840 MHz, 145.915 MHz
KITSAT 1 24 Jul 11:56:12 11:59:05 12° 350° (N) 12:01:58 435.175 FM
Sapphire 24 Jul 12:04:18 12:09:38 57° 245° (WSW) 12:14:55 437.095 MHz 1200 baud AX-25 AFSK
Oscar 11 24 Jul 12:06:52 12:10:07 21° 294° (WNW) 12:13:22 145.825 FM, Beacon 2401.500 USB
FUNcube-1 24 Jul 12:13:03 12:17:00 44° 288° (WNW) 12:20:58 145.950 - 145.970 MHz USB
Oscar 16 24 Jul 12:18:33 12:20:15 12° 58° (ENE) 12:21:58 437.025 USB, Beacon 2401.1428
HO-68 24 Jul 12:20:46 12:25:42 21° 305° (NW) 12:30:38 435.675 MHz FM
PCSat 24 Jul 12:38:53 12:43:24 28° 252° (WSW) 12:47:54 145.825 MHz
JAS-1B 24 Jul 12:39:31 12:43:51 14° 44° (NE) 12:48:20 435.800 - 435.900 CW/SSB
AO-27 24 Jul 12:47:59 12:48:15 10° 56° (NE) 12:48:31 436.795 MHz FM
AO-Echo 24 Jul 12:48:56 12:49:58 11° 57° (ENE) 12:50:59 ?
Uribyol 2 24 Jul 12:49:44 12:51:10 11° 57° (ENE) 12:52:36 436.500 FM
